Weather History for Paynesville, MN

Change the Weather History Date:

Tuesday, January 21, 2014

  Actual Average (KLJF) Record (KLJF)
Temperature  
Mean Temperature -10 °F -  
Max Temperature 5 °F 26 °F 45 °F (1981)
Min Temperature -24 °F 4 °F -31 °F (1970)
Degree Days  
Heating Degree Days 74    
Moisture  
Dew Point -15 °F    
Average Humidity 74    
Maximum Humidity 86    
Minimum Humidity 65    
Precipitation  
Precipitation 0.00 in - - ()
Sea Level Pressure  
Sea Level Pressure 30.22 in    
Wind  
Wind Speed 6 mph (South)    
Max Wind Speed 12 mph    
Max Gust Speed -    
Visibility 7 miles    
Events Snow    
Averages and records for this station are not official NWS values.
T = Trace of Precipitation, MM = Missing Value Source: NWS Daily Summary

Daily Weather History Graph

Daily Weather History Graph

Search for Another Location

Airport:

Trip Planner

Search our weather history database for the weather conditions in past years. The results will help you decide how hot, cold, wet, or windy it might be!

Date:

Astronomy

Jan. 21, 2014 Rise Set
Actual Time 7:50 AM CST 5:10 PM CST
Civil Twilight 7:18 AM CST 5:42 PM CST
Nautical Twilight 6:41 AM CST 6:19 PM CST
Astronomical Twilight 6:06 AM CST 6:54 PM CST
Moon 11:02 PM CST (1/21) 10:03 AM CST (1/21)
Length of Visible Light 10h 24m
Length of Day
9h 19m
Waning Gibbous, 74% of the Moon is Illuminated
Jan 21
Waning Gibbous
Jan 23
Last Quarter
Jan 30
New
Feb 6
First Quarter
Feb 14
Full

Hourly Weather History & Observations

Time (CST) Temp. Windchill Dew Point Humidity Pressure Visibility Wind Dir Wind Speed Gust Speed Precip Events Conditions
12:12 AM -13.9 °F -32.4 °F -21.1 °F 70% 30.47 in 10.0 mi NW 9.2 mph - N/A   Clear
12:32 AM -14.1 °F -31.3 °F -21.6 °F 69% 30.46 in 10.0 mi NW 8.1 mph - N/A   Clear
12:52 AM -14.8 °F -30.8 °F -22.5 °F 68% 30.45 in 10.0 mi WNW 6.9 mph - N/A   Clear
1:13 AM -15.7 °F -34.6 °F -23.3 °F 69% 30.46 in 10.0 mi WNW 9.2 mph - N/A   Clear
1:32 AM -15.9 °F -32.1 °F -23.8 °F 67% 30.46 in 10.0 mi WNW 6.9 mph - N/A   Clear
1:52 AM -16.6 °F -32.9 °F -24.3 °F 68% 30.46 in 10.0 mi WNW 6.9 mph - N/A   Clear
2:12 AM -17.5 °F -35.5 °F -24.9 °F 69% 30.46 in 10.0 mi NW 8.1 mph - N/A   Clear
2:32 AM -17.7 °F -34.2 °F -25.2 °F 68% 30.45 in 10.0 mi WNW 6.9 mph - N/A   Clear
2:52 AM -18.2 °F -34.9 °F -25.8 °F 68% 30.46 in 10.0 mi WNW 6.9 mph - N/A   Clear
3:12 AM -18.9 °F -35.8 °F -26.5 °F 68% 30.45 in 10.0 mi WNW 6.9 mph - N/A   Clear
3:32 AM -19.5 °F -32.6 °F -26.7 °F 70% 30.45 in 10.0 mi WNW 4.6 mph - N/A   Clear
3:52 AM -20.6 °F -33.9 °F -27.9 °F 69% 30.45 in 10.0 mi WNW 4.6 mph - N/A   Clear
4:12 AM -22.4 °F - -29.2 °F 70% 30.45 in 10.0 mi Calm Calm - N/A   Clear
4:32 AM -22.9 °F -36.6 °F -29.6 °F 71% 30.44 in 10.0 mi West 4.6 mph - N/A   Clear
4:52 AM -24.0 °F - -30.3 °F 72% 30.42 in 10.0 mi Calm Calm - N/A   Clear
5:12 AM -22.5 °F - -28.7 °F 73% 30.40 in 10.0 mi Calm Calm - N/A   Clear
5:32 AM -22.7 °F - -29.0 °F 72% 30.38 in 10.0 mi Calm Calm - N/A   Clear
5:52 AM -23.6 °F - -29.7 °F 73% 30.38 in 10.0 mi Calm Calm - N/A   Clear
6:12 AM -24.7 °F - -30.8 °F 73% 30.38 in 10.0 mi Calm Calm - N/A   Clear
6:32 AM -23.6 °F -42.9 °F -30.1 °F 72% 30.40 in 10.0 mi WSW 8.1 mph - N/A   Clear
6:52 AM -23.4 °F -34.6 °F -30.1 °F 71% 30.39 in 10.0 mi West 3.5 mph - N/A   Clear
7:12 AM -22.9 °F -34.0 °F -29.2 °F 72% 30.38 in 10.0 mi WSW 3.5 mph - N/A   Clear
7:32 AM -22.0 °F - -28.3 °F 73% 30.37 in 10.0 mi Calm Calm - N/A   Clear
7:52 AM -20.4 °F - -27.4 °F 70% 30.36 in 10.0 mi Calm Calm - N/A   Clear
8:12 AM -19.8 °F - -26.3 °F 72% 30.36 in 10.0 mi Calm Calm - N/A   Mostly Cloudy
8:33 AM -18.8 °F - -25.2 °F 72% 30.35 in 10.0 mi Calm Calm - N/A   Scattered Clouds
8:52 AM -18.4 °F - -24.9 °F 72% 30.34 in 10.0 mi Calm Calm - N/A   Mostly Cloudy
9:12 AM -16.8 °F - -23.8 °F 70% 30.34 in 10.0 mi Calm Calm - N/A   Mostly Cloudy
9:33 AM -15.5 °F - -22.4 °F 71% 30.33 in 10.0 mi Calm Calm - N/A   Mostly Cloudy
9:52 AM -13.2 °F - -20.9 °F 68% 30.32 in 10.0 mi Calm Calm - N/A   Overcast
10:13 AM -12.5 °F -24.4 °F -20.6 °F 67% 30.31 in 10.0 mi South 4.6 mph - N/A   Overcast
10:32 AM -11.6 °F -21.0 °F -19.5 °F 68% 30.30 in 10.0 mi SSW 3.5 mph - N/A   Overcast
10:53 AM -10.7 °F -25.8 °F -19.3 °F 66% 30.29 in 10.0 mi South 6.9 mph - N/A   Overcast
11:12 AM -9.8 °F -26.1 °F -18.4 °F 66% 30.29 in 10.0 mi South 8.1 mph - N/A   Overcast
11:33 AM -8.9 °F -23.6 °F -17.7 °F 65% 30.27 in 10.0 mi SSE 6.9 mph - N/A   Overcast
11:52 AM -8.1 °F -25.3 °F -16.6 °F 67% 30.25 in 10.0 mi SSE 9.2 mph - N/A   Overcast
12:13 PM -7.1 °F -21.4 °F -15.5 °F 67% 30.22 in 10.0 mi SSE 6.9 mph - N/A   Overcast
12:32 PM -6.2 °F -21.7 °F -15.2 °F 65% 30.20 in 10.0 mi South 8.1 mph - N/A   Overcast
12:53 PM -5.1 °F -20.4 °F -14.3 °F 65% 30.19 in 10.0 mi SSE 8.1 mph - N/A   Overcast
1:12 PM -4.9 °F -18.8 °F -13.2 °F 68% 30.18 in 5.0 mi SE 6.9 mph - N/A   Haze
1:32 PM -4.7 °F -19.9 °F -12.8 °F 68% 30.16 in 10.0 mi SSE 8.1 mph - N/A   Overcast
1:52 PM -4.0 °F -21.2 °F -11.9 °F 69% 30.14 in 3.0 mi SE 10.4 mph - N/A Snow Light Snow
2:12 PM -3.5 °F -20.5 °F -10.3 °F 73% 30.13 in 1.2 mi SSE 10.4 mph - N/A Snow Light Snow
2:32 PM -3.3 °F -19.3 °F -9.4 °F 75% 30.12 in 1.5 mi SSE 9.2 mph - N/A Snow Light Snow
2:52 PM -3.1 °F -19.1 °F -9.4 °F 74% 30.11 in 3.0 mi SSE 9.2 mph - N/A Snow Light Snow
3:12 PM -2.6 °F -16.0 °F -8.9 °F 74% 30.09 in 2.5 mi SSE 6.9 mph - N/A Snow Light Snow
3:33 PM -2.2 °F -19.9 °F -8.0 °F 76% 30.08 in 2.0 mi SSE 11.5 mph - N/A Snow Light Snow
3:52 PM -1.8 °F -16.4 °F -7.8 °F 76% 30.08 in 2.5 mi SSE 8.1 mph - N/A Snow Light Snow
4:12 PM -1.8 °F -18.5 °F -7.6 °F 76% 30.06 in 2.5 mi SSE 10.4 mph - N/A Snow Light Snow
4:32 PM -1.5 °F -18.1 °F -6.9 °F 78% 30.06 in 3.0 mi SE 10.4 mph - N/A Snow Light Snow
4:52 PM -1.5 °F -18.1 °F -6.9 °F 78% 30.07 in 4.0 mi SE 10.4 mph - N/A Snow Light Snow
5:13 PM -1.3 °F -16.8 °F -6.7 °F 78% 30.08 in 5.0 mi SSE 9.2 mph - N/A Snow Light Snow
5:32 PM -1.3 °F -16.8 °F -6.7 °F 78% 30.07 in 5.0 mi SSE 9.2 mph - N/A Snow Light Snow
5:53 PM -1.1 °F -16.6 °F -6.2 °F 79% 30.06 in 4.0 mi SSE 9.2 mph - N/A Snow Light Snow
6:12 PM -1.1 °F -15.5 °F -6.0 °F 80% 30.04 in 3.0 mi SSE 8.1 mph - N/A Snow Light Snow
6:32 PM -1.3 °F -11.4 °F -5.8 °F 81% 30.04 in 3.0 mi SSE 4.6 mph - N/A Snow Light Snow
6:53 PM -0.8 °F -12.5 °F -5.3 °F 81% 30.04 in 4.0 mi SSE 5.8 mph - N/A Snow Light Snow
7:13 PM -0.4 °F -12.0 °F -4.9 °F 81% 30.03 in 4.0 mi SSE 5.8 mph - N/A Snow Light Snow
7:32 PM 0.1 °F -11.4 °F -4.2 °F 82% 30.02 in 3.0 mi SSE 5.8 mph - N/A Snow Light Snow
7:52 PM 0.3 °F -9.5 °F -4.0 °F 82% 30.01 in 2.5 mi SSE 4.6 mph - N/A Snow Light Snow
8:13 PM 0.9 °F - -3.1 °F 83% 30.01 in 2.5 mi Calm Calm - N/A Snow Light Snow
8:32 PM 1.6 °F - -2.4 °F 83% 30.01 in 1.5 mi Calm Calm - N/A Snow Light Snow
8:52 PM 2.5 °F - -1.3 °F 84% 29.99 in 2.0 mi Calm Calm - N/A Snow Light Snow
9:13 PM 3.4 °F - -0.4 °F 84% 29.98 in 1.5 mi Calm Calm - N/A Snow Light Snow
9:33 PM 3.9 °F - -0.2 °F 83% 29.97 in 2.0 mi Calm Calm - N/A Snow Light Snow
9:52 PM 4.1 °F - 0.5 °F 85% 29.96 in 2.5 mi Calm Calm - N/A Snow Light Snow
10:12 PM 4.8 °F - 1.0 °F 84% 29.95 in 2.5 mi Calm Calm - N/A Snow Light Snow
10:32 PM 5.0 °F - 1.2 °F 84% 29.96 in 2.5 mi Calm Calm - N/A Snow Light Snow
10:52 PM 5.0 °F - 1.4 °F 85% 29.96 in 3.0 mi Calm Calm - N/A Snow Light Snow
11:12 PM 5.0 °F - 1.6 °F 86% 29.95 in 3.0 mi Calm Calm - N/A Snow Light Snow
11:32 PM 5.7 °F -1.3 °F 2.1 °F 85% 29.94 in 7.0 mi West 3.5 mph - N/A Snow Light Snow
11:53 PM 5.5 °F -3.4 °F 1.6 °F 84% 29.95 in 7.0 mi West 4.6 mph - N/A Snow Light Snow